APSTAR-6D

Last updated on Tue Sep 22 2026 00:03:15 GMT+0000 (Coordinated Universal Time)

1 45863U 20045A 26264.80838809 -.00000321 00000+0 00000+0 0 9996 2 45863 0.0422 102.9439 0002305 344.6426 338.1669 1.00272037 22825
UTC large
Height (km)
Speed (km/s)
/
Latitude / Longitude
Inclination (degrees)
Orbital Period (minutes)
Azimuth
Elevation
Range (km)
Doppler Factor

Next 0 passes for location: London (51.5072 / 0.1276)

No passes found over London.
APSTAR-6D